Home   Weather   Charleston   Past weeks

Flag for USA Past Weather in Charleston, West Virginia, USA — Yesterday and Last 2 Weeks

Now
26 °F

Passing clouds.


Feels Like: 26 °F
Forecast: 22 / 47 °F
Wind: No wind

Location: Yeager Airport

Current Time: Dec 10, 2016 at 9:21:05 pm

Latest Report: Dec 10, 2016 at 8:54 pm


Visibility: 10 mi

Pressure: 30.49 "Hg

Humidity: 69%

Dew Point: 17 °F

Location of CharlestonLocation

Past Weather in Charleston — Graph

°F

Charleston Temperature Yesterday

Maximum temperature yesterday: 27 °F (at 10:54 am)
Minimum temperature yesterday: 24 °F (at 1:54 am)
Average temperature yesterday: 25 °F

High & Low Weather Summary for the Past Weeks

 TemperatureHumidityPressure
High67 °F (Nov 29, 2:54 pm)96% (Nov 29, 3:54 am)30.62 "Hg (Nov 29, 3:54 am)
Low23 °F (Dec 10, 12:54 am)25% (Nov 28, 1:54 pm)29.55 "Hg (Nov 30, 5:54 pm)
Average41 °F69%30.10 "Hg
* Reported Nov 25 7:54 pm — Dec 10 7:54 pm, Charleston, Weather by CustomWeather, © 2016

Note: Actual official high and low records may vary slightly from our data, if they occured in-between our weather recording intervals... More about our weather records

Advertising

Charleston Weather History for the Previous 24 Hours

Scroll right to see more
 ConditionsComfort  
Time TempWeatherWind HumidityBarometerVisibility
7:54 pm
Sat, Dec 10
26 °FPassing clouds.No wind66%30.50 "Hg10 mi
6:54 pm26 °FPassing clouds.No wind63%30.51 "Hg10 mi
5:54 pm28 °FPassing clouds.No wind53%30.52 "Hg10 mi
4:54 pm29 °FPassing clouds.No wind49%30.52 "Hg10 mi
3:54 pm30 °FPassing clouds.5 mph47%30.52 "Hg10 mi
2:54 pm30 °FScattered clouds.7 mph47%30.52 "Hg10 mi
1:54 pm30 °FScattered clouds.9 mph47%30.53 "Hg10 mi
12:54 pm28 °FPartly sunny.8 mph51%30.55 "Hg10 mi
11:54 am27 °FPartly sunny.8 mph53%30.58 "Hg9 mi
10:54 am25 °FLight snow. Mostly cloudy.8 mph58%30.62 "Hg9 mi
9:54 am24 °FLight snow. Mostly cloudy.6 mph60%30.60 "Hg9 mi
8:54 am24 °FLight snow. Overcast.6 mph60%30.60 "Hg9 mi
7:54 am23 °FLight snow. Overcast.5 mph65%30.59 "Hg10 mi
6:54 am23 °FLight snow. Overcast.7 mph63%30.58 "Hg9 mi
5:54 am23 °FOvercast.6 mph60%30.57 "Hg10 mi
4:54 am23 °FOvercast.9 mph63%30.57 "Hg10 mi
3:54 am23 °FOvercast.7 mph63%30.56 "Hg10 mi
2:54 am23 °FOvercast.5 mph63%30.56 "Hg10 mi
1:54 am23 °FOvercast.6 mph65%30.54 "Hg10 mi
12:54 am23 °FOvercast.6 mph63%30.54 "Hg10 mi
11:54 pm
Fri, Dec 9
24 °FLight snow. Overcast.6 mph60%30.57 "Hg9 mi
10:54 pm24 °FLight snow. Overcast.8 mph60%30.57 "Hg9 mi
9:54 pm24 °FLight snow. Overcast.5 mph62%30.56 "Hg9 mi
Weather by CustomWeather, © 2016

See weather overviewHow to use our weather pages